Wetterdaten: Woche 09.02.26 - 15.02.26 (KW7)
Datum Zeit Temp. I. Temp. A. Feuchte I. Feuchte A. Luftdruck Regen Wind Richtung Sonnenschein Solar Taupunkt Windchill Windböen
09.02.2026 00:00 21,7 °C 0,4 °C 51 % 95 % 1012,8 hPa 0,0 l/m² 2,7 km/h (1 Bft) O-NO 0,00 h 0 W/m² -0,3 °C 0,4 °C 5,6 km/h (2 Bft)
09.02.2026 01:00 21,6 °C 0,3 °C 51 % 95 % 1012,6 hPa 0,0 l/m² 1,8 km/h (1 Bft) O-NO 0,00 h 0 W/m² -0,4 °C 0,3 °C 5,2 km/h (1 Bft)
09.02.2026 02:00 21,7 °C 0,3 °C 51 % 95 % 1012,4 hPa 0,0 l/m² 0,8 km/h (0 Bft) O-NO 0,00 h 0 W/m² -0,4 °C 0,3 °C 2,7 km/h (1 Bft)
09.02.2026 03:00 21,6 °C 0,3 °C 51 % 95 % 1012,1 hPa 0,0 l/m² 2,5 km/h (1 Bft) O-NO 0,00 h 0 W/m² -0,4 °C 0,3 °C 4,7 km/h (1 Bft)
09.02.2026 04:00 21,7 °C 0,3 °C 50 % 95 % 1011,9 hPa 0,0 l/m² 2,6 km/h (1 Bft) O-NO 0,00 h 0 W/m² -0,4 °C 0,3 °C 5,2 km/h (1 Bft)
09.02.2026 05:00 21,7 °C 0,3 °C 50 % 95 % 1011,7 hPa 0,0 l/m² 3,9 km/h (1 Bft) O 0,00 h 0 W/m² -0,4 °C 0,1 °C 7,1 km/h (2 Bft)
09.02.2026 06:00 21,7 °C 0,3 °C 50 % 95 % 1011,5 hPa 0,0 l/m² 6,2 km/h (2 Bft) O-NO 0,00 h 0 W/m² -0,4 °C -0,3 °C 9,8 km/h (2 Bft)
09.02.2026 07:00 21,8 °C 0,2 °C 49 % 95 % 1011,4 hPa 0,0 l/m² 4,2 km/h (1 Bft) O 0,00 h 6 W/m² -0,5 °C -0,1 °C 6,9 km/h (2 Bft)
09.02.2026 08:00 21,8 °C 0,3 °C 49 % 95 % 1011,5 hPa 0,0 l/m² 7,1 km/h (2 Bft) O 0,00 h 16 W/m² -0,4 °C -1,1 °C 10,0 km/h (2 Bft)
09.02.2026 09:00 21,7 °C 0,4 °C 47 % 95 % 1011,6 hPa 0,0 l/m² 7,1 km/h (2 Bft) O 0,00 h 36 W/m² -0,3 °C -1,0 °C 10,4 km/h (2 Bft)
09.02.2026 10:00 21,7 °C 0,6 °C 48 % 95 % 1011,5 hPa 0,0 l/m² 5,3 km/h (1 Bft) O 0,88 h 65 W/m² -0,1 °C 0,3 °C 8,3 km/h (2 Bft)
09.02.2026 11:00 21,8 °C 0,8 °C 48 % 95 % 1011,3 hPa 0,0 l/m² 6,2 km/h (2 Bft) O 1,00 h 88 W/m² 0,1 °C -0,1 °C 9,5 km/h (2 Bft)
09.02.2026 12:00 21,8 °C 1,1 °C 48 % 95 % 1011,1 hPa 0,0 l/m² 3,5 km/h (1 Bft) O 0,98 h 95 W/m² 0,4 °C 1,0 °C 6,7 km/h (2 Bft)
09.02.2026 13:00 21,8 °C 1,2 °C 48 % 95 % 1010,6 hPa 0,0 l/m² 4,9 km/h (1 Bft) O 1,00 h 96 W/m² 0,5 °C 0,8 °C 9,0 km/h (2 Bft)
09.02.2026 14:00 21,9 °C 1,5 °C 48 % 94 % 1010,1 hPa 0,0 l/m² 5,1 km/h (1 Bft) O 1,00 h 81 W/m² 0,6 °C 1,1 °C 10,0 km/h (2 Bft)
09.02.2026 15:00 21,9 °C 1,8 °C 48 % 94 % 1009,7 hPa 0,0 l/m² 4,6 km/h (1 Bft) O 0,70 h 54 W/m² 0,8 °C 1,6 °C 8,8 km/h (2 Bft)
09.02.2026 16:00 21,8 °C 1,8 °C 46 % 93 % 1009,3 hPa 0,0 l/m² 4,3 km/h (1 Bft) O-NO 0,00 h 17 W/m² 0,8 °C 1,7 °C 7,2 km/h (2 Bft)
09.02.2026 17:00 21,8 °C 1,6 °C 47 % 93 % 1009,0 hPa 0,0 l/m² 0,9 km/h (0 Bft) O-NO 0,00 h 0 W/m² 0,6 °C 1,6 °C 1,5 km/h (1 Bft)
09.02.2026 18:00 21,7 °C 1,7 °C 45 % 93 % 1008,6 hPa 0,0 l/m² 0,3 km/h (0 Bft) O 0,00 h 0 W/m² 0,7 °C 1,7 °C 1,1 km/h (1 Bft)
09.02.2026 19:00 21,3 °C 1,7 °C 41 % 94 % 1008,5 hPa 0,0 l/m² 0,1 km/h (0 Bft) O-NO 0,00 h 0 W/m² 0,9 °C 1,7 °C 0,5 km/h (0 Bft)
09.02.2026 20:00 21,3 °C 1,7 °C 45 % 94 % 1008,2 hPa 0,0 l/m² 0,8 km/h (0 Bft) O-NO 0,00 h 0 W/m² 0,8 °C 1,7 °C 2,2 km/h (1 Bft)
09.02.2026 21:00 21,6 °C 1,6 °C 47 % 94 % 1007,8 hPa 0,0 l/m² 2,0 km/h (1 Bft) O-NO 0,00 h 0 W/m² 0,7 °C 1,4 °C 4,6 km/h (1 Bft)
09.02.2026 22:00 21,6 °C 1,4 °C 47 % 94 % 1007,3 hPa 0,0 l/m² 0,6 km/h (0 Bft) O 0,00 h 0 W/m² 0,5 °C 1,4 °C 1,3 km/h (1 Bft)
09.02.2026 23:00 21,6 °C 1,4 °C 47 % 94 % 1006,7 hPa 0,0 l/m² 0,0 km/h (0 Bft) O-NO 0,00 h 0 W/m² 0,5 °C 1,4 °C 0,0 km/h (0 Bft)
10.02.2026 00:00 21,6 °C 1,4 °C 47 % 94 % 1006,1 hPa 0,0 l/m² 0,0 km/h (0 Bft) NO 0,00 h 0 W/m² 0,5 °C 1,4 °C 0,0 km/h (0 Bft)
10.02.2026 01:00 21,6 °C 1,4 °C 47 % 94 % 1005,6 hPa 0,0 l/m² 0,0 km/h (0 Bft) O-NO 0,00 h 0 W/m² 0,5 °C 1,4 °C 0,0 km/h (0 Bft)
10.02.2026 02:00 21,6 °C 1,3 °C 47 % 94 % 1005,0 hPa 0,0 l/m² 0,0 km/h (0 Bft) O-NO 0,00 h 0 W/m² 0,4 °C 1,3 °C 0,0 km/h (0 Bft)
10.02.2026 03:00 21,6 °C 1,3 °C 47 % 94 % 1004,5 hPa 0,0 l/m² 0,0 km/h (0 Bft) O-NO 0,00 h 0 W/m² 0,4 °C 1,3 °C 0,0 km/h (0 Bft)
10.02.2026 04:00 21,6 °C 1,1 °C 47 % 94 % 1003,9 hPa 0,0 l/m² 0,0 km/h (0 Bft) W-SW 0,00 h 0 W/m² 0,3 °C 1,1 °C 0,0 km/h (0 Bft)
10.02.2026 05:00 21,6 °C 1,1 °C 47 % 94 % 1003,3 hPa 0,0 l/m² 0,0 km/h (0 Bft) S 0,00 h 0 W/m² 0,2 °C 1,1 °C 0,0 km/h (0 Bft)
10.02.2026 06:00 21,5 °C 1,2 °C 47 % 94 % 1002,7 hPa 0,0 l/m² 0,0 km/h (0 Bft) S-SW 0,00 h 0 W/m² 0,3 °C 1,2 °C 0,0 km/h (0 Bft)
10.02.2026 07:00 21,4 °C 1,8 °C 46 % 94 % 1002,3 hPa 0,0 l/m² 0,1 km/h (0 Bft) O-SO 0,00 h 8 W/m² 0,9 °C 1,8 °C 0,9 km/h (0 Bft)
10.02.2026 08:00 21,5 °C 2,3 °C 46 % 91 % 1002,0 hPa 0,0 l/m² 2,5 km/h (1 Bft) O-SO 0,37 h 57 W/m² 1,1 °C 2,3 °C 3,7 km/h (1 Bft)
10.02.2026 09:00 21,7 °C 4,1 °C 46 % 86 % 1001,6 hPa 0,0 l/m² 4,1 km/h (1 Bft) O 0,98 h 209 W/m² 2,0 °C 3,7 °C 6,6 km/h (2 Bft)
10.02.2026 10:00 21,9 °C 5,6 °C 46 % 79 % 1001,0 hPa 0,0 l/m² 11,2 km/h (2 Bft) SO 1,02 h 323 W/m² 2,3 °C 2,1 °C 15,0 km/h (3 Bft)
10.02.2026 11:00 22,1 °C 6,4 °C 46 % 78 % 1000,2 hPa 0,0 l/m² 9,2 km/h (2 Bft) S-SO 1,00 h 405 W/m² 2,8 °C 4,1 °C 12,5 km/h (2 Bft)
10.02.2026 12:00 22,3 °C 7,2 °C 46 % 77 % 999,5 hPa 0,0 l/m² 10,6 km/h (2 Bft) S-SO 1,00 h 409 W/m² 3,3 °C 4,1 °C 14,6 km/h (3 Bft)
10.02.2026 13:00 22,3 °C 8,0 °C 46 % 74 % 998,6 hPa 0,0 l/m² 6,1 km/h (2 Bft) SO 1,00 h 350 W/m² 3,8 °C 7,3 °C 9,2 km/h (2 Bft)
10.02.2026 14:00 22,1 °C 7,8 °C 46 % 74 % 997,4 hPa 0,0 l/m² 5,9 km/h (2 Bft) O-SO 1,00 h 184 W/m² 3,5 °C 7,2 °C 9,2 km/h (2 Bft)
10.02.2026 15:00 22,1 °C 7,7 °C 47 % 75 % 996,4 hPa 0,0 l/m² 6,5 km/h (2 Bft) O-SO 1,00 h 150 W/m² 3,6 °C 6,5 °C 10,1 km/h (2 Bft)
10.02.2026 16:00 21,9 °C 6,6 °C 45 % 77 % 995,7 hPa 0,0 l/m² 8,3 km/h (2 Bft) O 0,28 h 38 W/m² 3,0 °C 5,0 °C 11,5 km/h (2 Bft)
10.02.2026 17:00 21,7 °C 5,7 °C 44 % 80 % 994,9 hPa 0,0 l/m² 10,3 km/h (2 Bft) O 0,00 h 8 W/m² 2,5 °C 2,7 °C 13,4 km/h (3 Bft)
10.02.2026 18:00 21,7 °C 4,7 °C 46 % 82 % 994,4 hPa 0,0 l/m² 4,6 km/h (1 Bft) O-NO 0,00 h 0 W/m² 2,0 °C 4,2 °C 6,9 km/h (2 Bft)
10.02.2026 19:00 21,7 °C 4,6 °C 47 % 84 % 993,7 hPa 0,0 l/m² 1,8 km/h (1 Bft) SO 0,00 h 0 W/m² 2,1 °C 4,5 °C 3,4 km/h (1 Bft)
10.02.2026 20:00 21,8 °C 5,0 °C 47 % 82 % 992,9 hPa 0,0 l/m² 5,4 km/h (1 Bft) SO 0,00 h 0 W/m² 2,3 °C 4,4 °C 8,7 km/h (2 Bft)
10.02.2026 21:00 21,9 °C 5,3 °C 46 % 80 % 992,2 hPa 0,0 l/m² 2,5 km/h (1 Bft) SO 0,00 h 0 W/m² 2,1 °C 5,2 °C 4,9 km/h (1 Bft)
10.02.2026 22:00 21,8 °C 5,2 °C 47 % 81 % 991,4 hPa 0,0 l/m² 8,1 km/h (2 Bft) SO 0,00 h 0 W/m² 2,2 °C 3,5 °C 11,7 km/h (2 Bft)
10.02.2026 23:00 21,8 °C 5,4 °C 47 % 80 % 990,8 hPa 0,0 l/m² 8,3 km/h (2 Bft) SO 0,00 h 0 W/m² 2,3 °C 3,4 °C 12,2 km/h (2 Bft)
11.02.2026 00:00 21,7 °C 4,9 °C 47 % 82 % 990,0 hPa 0,0 l/m² 0,7 km/h (0 Bft) O-SO 0,00 h 0 W/m² 2,1 °C 4,9 °C 1,4 km/h (1 Bft)
11.02.2026 01:00 21,8 °C 4,2 °C 47 % 84 % 989,3 hPa 0,0 l/m² 3,0 km/h (1 Bft) O-NO 0,00 h 0 W/m² 1,7 °C 4,0 °C 5,0 km/h (1 Bft)
11.02.2026 02:00 21,8 °C 4,2 °C 47 % 87 % 988,7 hPa 0,0 l/m² 5,1 km/h (1 Bft) O-SO 0,00 h 0 W/m² 2,2 °C 4,0 °C 8,2 km/h (2 Bft)
11.02.2026 03:00 21,7 °C 4,4 °C 47 % 87 % 987,8 hPa 0,0 l/m² 1,6 km/h (1 Bft) O-SO 0,00 h 0 W/m² 2,5 °C 4,4 °C 4,0 km/h (1 Bft)
11.02.2026 04:00 21,8 °C 4,3 °C 47 % 88 % 987,3 hPa 0,0 l/m² 5,2 km/h (1 Bft) O 0,00 h 0 W/m² 2,5 °C 4,1 °C 8,3 km/h (2 Bft)
11.02.2026 05:00 21,8 °C 4,4 °C 47 % 89 % 986,9 hPa 0,0 l/m² 2,1 km/h (1 Bft) O 0,00 h 0 W/m² 2,8 °C 4,1 °C 3,1 km/h (1 Bft)
11.02.2026 06:00 21,7 °C 3,9 °C 47 % 89 % 986,3 hPa 0,0 l/m² 2,8 km/h (1 Bft) O 0,00 h 0 W/m² 2,3 °C 3,8 °C 4,3 km/h (1 Bft)
11.02.2026 07:00 21,7 °C 3,7 °C 46 % 90 % 985,8 hPa 0,0 l/m² 5,5 km/h (2 Bft) O 0,00 h 12 W/m² 2,2 °C 3,3 °C 8,0 km/h (2 Bft)
11.02.2026 08:00 21,7 °C 3,9 °C 46 % 91 % 985,6 hPa 0,0 l/m² 4,6 km/h (1 Bft) O 0,77 h 96 W/m² 2,5 °C 3,1 °C 6,3 km/h (2 Bft)
11.02.2026 09:00 21,8 °C 5,6 °C 46 % 90 % 985,3 hPa 0,0 l/m² 3,8 km/h (1 Bft) O-SO 1,00 h 123 W/m² 4,1 °C 5,5 °C 6,6 km/h (2 Bft)
11.02.2026 10:00 21,8 °C 7,1 °C 46 % 88 % 985,3 hPa 0,0 l/m² 2,8 km/h (1 Bft) SO 1,00 h 155 W/m² 5,2 °C 7,0 °C 5,6 km/h (2 Bft)
11.02.2026 11:00 21,7 °C 7,7 °C 46 % 86 % 985,2 hPa 0,2 l/m² 3,3 km/h (1 Bft) S-SO 1,00 h 121 W/m² 5,5 °C 7,5 °C 5,2 km/h (1 Bft)
11.02.2026 12:00 21,7 °C 7,8 °C 46 % 87 % 984,8 hPa 0,2 l/m² 0,1 km/h (0 Bft) S-SO 0,98 h 96 W/m² 5,8 °C 7,8 °C 0,8 km/h (0 Bft)
11.02.2026 13:00 21,7 °C 7,7 °C 47 % 88 % 984,6 hPa 0,2 l/m² 0,0 km/h (0 Bft) S 0,92 h 71 W/m² 5,9 °C 7,7 °C 0,0 km/h (0 Bft)
11.02.2026 14:00 21,7 °C 7,7 °C 47 % 90 % 984,4 hPa 0,0 l/m² 0,4 km/h (0 Bft) S 0,92 h 69 W/m² 6,1 °C 7,7 °C 0,8 km/h (0 Bft)
11.02.2026 15:00 21,6 °C 7,7 °C 47 % 91 % 984,5 hPa 0,0 l/m² 3,7 km/h (1 Bft) SW 0,82 h 73 W/m² 6,3 °C 7,3 °C 6,3 km/h (2 Bft)
11.02.2026 16:00 21,5 °C 7,3 °C 47 % 90 % 984,5 hPa 0,0 l/m² 5,8 km/h (2 Bft) SW 0,00 h 26 W/m² 5,8 °C 6,9 °C 8,9 km/h (2 Bft)
11.02.2026 17:00 21,4 °C 6,7 °C 47 % 91 % 984,5 hPa 0,0 l/m² 2,8 km/h (1 Bft) S-SW 0,00 h 6 W/m² 5,3 °C 6,6 °C 4,5 km/h (1 Bft)
11.02.2026 18:00 21,3 °C 6,3 °C 47 % 92 % 984,6 hPa 0,0 l/m² 0,6 km/h (0 Bft) SW 0,00 h 0 W/m² 5,0 °C 6,3 °C 1,1 km/h (0 Bft)
11.02.2026 19:00 21,3 °C 5,8 °C 49 % 92 % 984,6 hPa 0,0 l/m² 0,0 km/h (0 Bft) SW 0,00 h 0 W/m² 4,6 °C 5,8 °C 0,0 km/h (0 Bft)
11.02.2026 20:00 21,6 °C 5,4 °C 53 % 93 % 984,3 hPa 0,0 l/m² 0,0 km/h (0 Bft) S-SO 0,00 h 0 W/m² 4,3 °C 5,4 °C 0,0 km/h (0 Bft)
11.02.2026 21:00 21,7 °C 5,4 °C 51 % 93 % 984,1 hPa 0,0 l/m² 0,0 km/h (0 Bft) S-SO 0,00 h 0 W/m² 4,4 °C 5,4 °C 0,0 km/h (0 Bft)
11.02.2026 22:00 21,7 °C 5,6 °C 50 % 94 % 983,8 hPa 0,0 l/m² 0,0 km/h (0 Bft) S 0,00 h 0 W/m² 4,7 °C 5,6 °C 0,2 km/h (0 Bft)
11.02.2026 23:00 21,6 °C 6,0 °C 50 % 94 % 983,4 hPa 0,2 l/m² 0,0 km/h (0 Bft) S 0,00 h 0 W/m² 5,1 °C 6,0 °C 0,2 km/h (0 Bft)
12.02.2026 00:00 21,6 °C 5,9 °C 49 % 94 % 983,2 hPa 0,0 l/m² 0,5 km/h (0 Bft) S 0,00 h 0 W/m² 5,0 °C 5,9 °C 0,7 km/h (0 Bft)
12.02.2026 01:00 21,7 °C 6,2 °C 49 % 95 % 982,7 hPa 0,0 l/m² 0,0 km/h (0 Bft) S-SW 0,00 h 0 W/m² 5,4 °C 6,2 °C 0,0 km/h (0 Bft)
12.02.2026 02:00 21,6 °C 5,3 °C 49 % 94 % 981,8 hPa 0,0 l/m² 0,0 km/h (0 Bft) O-SO 0,00 h 0 W/m² 4,5 °C 5,3 °C 0,2 km/h (0 Bft)
12.02.2026 03:00 21,6 °C 4,4 °C 49 % 94 % 981,0 hPa 0,2 l/m² 0,0 km/h (0 Bft) S 0,00 h 0 W/m² 3,5 °C 4,4 °C 0,1 km/h (0 Bft)
12.02.2026 04:00 21,6 °C 4,0 °C 48 % 95 % 980,3 hPa 0,0 l/m² 0,1 km/h (0 Bft) S 0,00 h 0 W/m² 3,2 °C 4,0 °C 0,2 km/h (0 Bft)
12.02.2026 05:00 21,6 °C 4,0 °C 49 % 94 % 980,2 hPa 0,0 l/m² 0,0 km/h (0 Bft) S 0,00 h 0 W/m² 3,1 °C 4,0 °C 0,0 km/h (0 Bft)
12.02.2026 06:00 21,6 °C 3,5 °C 48 % 94 % 979,7 hPa 0,0 l/m² 0,0 km/h (0 Bft) SO 0,00 h 0 W/m² 2,6 °C 3,5 °C 0,0 km/h (0 Bft)
12.02.2026 07:00 21,4 °C 3,8 °C 47 % 95 % 979,5 hPa 0,4 l/m² 0,0 km/h (0 Bft) SO 0,00 h 6 W/m² 3,1 °C 3,8 °C 0,0 km/h (0 Bft)
12.02.2026 08:00 21,4 °C 4,5 °C 47 % 95 % 979,0 hPa 0,4 l/m² 2,3 km/h (1 Bft) SO 0,02 h 30 W/m² 3,8 °C 4,3 °C 4,0 km/h (1 Bft)
12.02.2026 09:00 21,5 °C 6,5 °C 48 % 96 % 978,6 hPa 0,0 l/m² 6,8 km/h (2 Bft) SO 1,00 h 75 W/m² 5,9 °C 5,4 °C 10,9 km/h (2 Bft)
12.02.2026 10:00 21,5 °C 7,3 °C 48 % 95 % 978,4 hPa 0,0 l/m² 7,4 km/h (2 Bft) S-SO 1,00 h 100 W/m² 6,5 °C 5,6 °C 11,5 km/h (2 Bft)
12.02.2026 11:00 21,4 °C 7,4 °C 48 % 94 % 978,2 hPa 0,8 l/m² 6,0 km/h (2 Bft) SO 1,00 h 80 W/m² 6,5 °C 6,7 °C 11,0 km/h (2 Bft)
12.02.2026 12:00 21,4 °C 7,7 °C 48 % 93 % 977,7 hPa 0,0 l/m² 6,4 km/h (2 Bft) SO 1,00 h 167 W/m² 6,8 °C 7,0 °C 11,3 km/h (2 Bft)
12.02.2026 13:00 21,5 °C 9,0 °C 48 % 92 % 977,5 hPa 0,0 l/m² 7,9 km/h (2 Bft) S-SO 1,00 h 179 W/m² 7,8 °C 7,4 °C 12,7 km/h (3 Bft)
12.02.2026 14:00 21,5 °C 10,1 °C 48 % 87 % 977,4 hPa 0,0 l/m² 9,3 km/h (2 Bft) S 1,00 h 128 W/m² 8,0 °C 8,1 °C 13,9 km/h (3 Bft)
12.02.2026 15:00 21,6 °C 10,7 °C 48 % 84 % 977,6 hPa 0,0 l/m² 7,3 km/h (2 Bft) S-SW 0,85 h 95 W/m² 8,0 °C 9,7 °C 10,7 km/h (2 Bft)
12.02.2026 16:00 21,4 °C 10,5 °C 48 % 82 % 977,9 hPa 0,0 l/m² 8,6 km/h (2 Bft) S-SW 0,03 h 24 W/m² 7,6 °C 8,9 °C 11,4 km/h (2 Bft)
12.02.2026 17:00 21,3 °C 9,6 °C 48 % 86 % 978,4 hPa 0,0 l/m² 10,9 km/h (2 Bft) S-SW 0,00 h 5 W/m² 7,3 °C 6,8 °C 14,1 km/h (3 Bft)
12.02.2026 18:00 21,3 °C 8,7 °C 49 % 90 % 979,6 hPa 1,8 l/m² 15,4 km/h (3 Bft) SW 0,00 h 0 W/m² 7,1 °C 3,5 °C 22,1 km/h (4 Bft)
12.02.2026 19:00 21,3 °C 7,5 °C 49 % 90 % 981,4 hPa 0,2 l/m² 19,8 km/h (4 Bft) W 0,00 h 0 W/m² 6,1 °C 0,3 °C 27,5 km/h (5 Bft)
12.02.2026 20:00 21,4 °C 6,7 °C 50 % 89 % 982,9 hPa 0,0 l/m² 20,0 km/h (4 Bft) W 0,00 h 0 W/m² 5,1 °C -0,8 °C 27,1 km/h (5 Bft)
12.02.2026 21:00 21,6 °C 6,7 °C 50 % 88 % 984,1 hPa 0,0 l/m² 14,8 km/h (3 Bft) W 0,00 h 0 W/m² 4,9 °C 1,7 °C 20,1 km/h (4 Bft)
12.02.2026 22:00 21,6 °C 6,2 °C 50 % 89 % 984,9 hPa 0,0 l/m² 8,7 km/h (2 Bft) W-SW 0,00 h 0 W/m² 4,5 °C 4,4 °C 12,9 km/h (3 Bft)
12.02.2026 23:00 21,5 °C 6,1 °C 50 % 90 % 985,4 hPa 0,0 l/m² 11,1 km/h (2 Bft) W-SW 0,00 h 0 W/m² 4,6 °C 2,8 °C 15,2 km/h (3 Bft)
13.02.2026 00:00 21,4 °C 6,2 °C 50 % 91 % 985,9 hPa 0,0 l/m² 8,9 km/h (2 Bft) SW 0,00 h 0 W/m² 4,9 °C 4,3 °C 12,2 km/h (2 Bft)
13.02.2026 01:00 21,5 °C 6,0 °C 50 % 91 % 986,4 hPa 0,0 l/m² 14,0 km/h (3 Bft) SW 0,00 h 0 W/m² 4,7 °C 0,9 °C 17,7 km/h (3 Bft)
13.02.2026 02:00 21,4 °C 6,1 °C 50 % 91 % 986,9 hPa 0,0 l/m² 15,1 km/h (3 Bft) SW 0,00 h 0 W/m² 4,7 °C 0,5 °C 19,5 km/h (3 Bft)
13.02.2026 03:00 21,4 °C 6,1 °C 49 % 91 % 987,0 hPa 0,0 l/m² 10,7 km/h (2 Bft) SW 0,00 h 0 W/m² 4,7 °C 3,0 °C 14,9 km/h (3 Bft)
13.02.2026 04:00 21,4 °C 6,3 °C 49 % 91 % 987,4 hPa 0,0 l/m² 12,2 km/h (2 Bft) SW 0,00 h 0 W/m² 4,9 °C 2,2 °C 15,8 km/h (3 Bft)
13.02.2026 05:00 21,5 °C 6,2 °C 50 % 90 % 987,8 hPa 0,0 l/m² 3,8 km/h (1 Bft) W-SW 0,00 h 0 W/m² 4,7 °C 6,0 °C 6,7 km/h (2 Bft)
13.02.2026 06:00 21,4 °C 6,0 °C 49 % 90 % 988,3 hPa 0,0 l/m² 3,1 km/h (1 Bft) W-NW 0,00 h 0 W/m² 4,6 °C 5,9 °C 5,9 km/h (2 Bft)
13.02.2026 07:00 21,4 °C 5,0 °C 48 % 90 % 989,0 hPa 0,4 l/m² 1,4 km/h (1 Bft) N-NW 0,00 h 7 W/m² 3,5 °C 5,0 °C 3,3 km/h (1 Bft)
13.02.2026 08:00 21,4 °C 4,1 °C 48 % 91 % 989,7 hPa 0,2 l/m² 0,7 km/h (0 Bft) N 0,00 h 15 W/m² 2,8 °C 4,1 °C 2,2 km/h (1 Bft)
13.02.2026 09:00 21,4 °C 3,7 °C 48 % 92 % 990,3 hPa 0,2 l/m² 1,3 km/h (1 Bft) N-NW 0,33 h 43 W/m² 2,5 °C 3,7 °C 3,1 km/h (1 Bft)
13.02.2026 10:00 21,4 °C 3,6 °C 49 % 92 % 991,0 hPa 0,2 l/m² 1,2 km/h (1 Bft) N-NW 0,83 h 82 W/m² 2,4 °C 3,6 °C 2,8 km/h (1 Bft)
13.02.2026 11:00 21,4 °C 3,8 °C 48 % 92 % 991,7 hPa 0,0 l/m² 0,2 km/h (0 Bft) N-NO 0,80 h 73 W/m² 2,6 °C 3,8 °C 0,6 km/h (0 Bft)
13.02.2026 12:00 21,4 °C 3,7 °C 48 % 92 % 992,0 hPa 0,2 l/m² 1,6 km/h (1 Bft) N-NO 0,53 h 50 W/m² 2,6 °C 3,7 °C 4,1 km/h (1 Bft)
13.02.2026 13:00 21,4 °C 3,5 °C 48 % 92 % 992,2 hPa 0,0 l/m² 1,5 km/h (1 Bft) NO 0,80 h 71 W/m² 2,3 °C 3,5 °C 4,5 km/h (1 Bft)
13.02.2026 14:00 21,4 °C 3,3 °C 48 % 92 % 992,5 hPa 0,0 l/m² 1,0 km/h (0 Bft) NO 0,40 h 51 W/m² 2,2 °C 3,3 °C 2,8 km/h (1 Bft)
13.02.2026 15:00 21,4 °C 3,2 °C 48 % 92 % 992,9 hPa 0,2 l/m² 0,1 km/h (0 Bft) NO 0,00 h 25 W/m² 2,1 °C 3,2 °C 0,9 km/h (0 Bft)
13.02.2026 16:00 21,4 °C 3,0 °C 48 % 92 % 993,4 hPa 0,0 l/m² 1,6 km/h (1 Bft) N-NW 0,00 h 10 W/m² 1,8 °C 3,0 °C 3,9 km/h (1 Bft)
13.02.2026 17:00 21,1 °C 2,5 °C 44 % 92 % 994,1 hPa 0,2 l/m² 2,7 km/h (1 Bft) N-NW 0,00 h 5 W/m² 1,4 °C 2,5 °C 5,3 km/h (1 Bft)
13.02.2026 18:00 21,1 °C 2,1 °C 45 % 92 % 995,3 hPa 0,0 l/m² 1,5 km/h (1 Bft) N-NW 0,00 h 0 W/m² 1,0 °C 2,1 °C 3,6 km/h (1 Bft)
13.02.2026 19:00 21,2 °C 1,9 °C 46 % 93 % 996,0 hPa 0,0 l/m² 2,3 km/h (1 Bft) N-NO 0,00 h 0 W/m² 0,9 °C 1,9 °C 5,5 km/h (2 Bft)
13.02.2026 20:00 21,4 °C 1,7 °C 47 % 93 % 996,4 hPa 0,0 l/m² 2,9 km/h (1 Bft) N-NO 0,00 h 0 W/m² 0,7 °C 1,7 °C 7,2 km/h (2 Bft)
13.02.2026 21:00 21,7 °C 1,5 °C 49 % 93 % 997,1 hPa 0,0 l/m² 2,3 km/h (1 Bft) NO 0,00 h 0 W/m² 0,5 °C 1,5 °C 5,5 km/h (2 Bft)
13.02.2026 22:00 21,7 °C 1,3 °C 50 % 92 % 997,7 hPa 0,0 l/m² 1,4 km/h (1 Bft) NO 0,00 h 0 W/m² 0,2 °C 1,3 °C 4,3 km/h (1 Bft)
13.02.2026 23:00 21,7 °C 1,2 °C 51 % 92 % 998,3 hPa 0,0 l/m² 1,5 km/h (1 Bft) NO 0,00 h 0 W/m² 0,1 °C 1,2 °C 5,0 km/h (1 Bft)
14.02.2026 00:00 21,6 °C 1,1 °C 51 % 92 % 998,9 hPa 0,0 l/m² 1,4 km/h (1 Bft) N-NO 0,00 h 0 W/m² -0,0 °C 1,1 °C 4,6 km/h (1 Bft)
14.02.2026 01:00 21,5 °C 1,0 °C 51 % 92 % 999,6 hPa 0,0 l/m² 1,8 km/h (1 Bft) N-NO 0,00 h 0 W/m² -0,1 °C 1,0 °C 5,7 km/h (2 Bft)
14.02.2026 02:00 21,4 °C 0,9 °C 51 % 92 % 1000,2 hPa 0,0 l/m² 1,5 km/h (1 Bft) N 0,00 h 0 W/m² -0,3 °C 0,8 °C 5,2 km/h (1 Bft)
14.02.2026 03:00 21,4 °C 0,8 °C 51 % 91 % 1000,6 hPa 0,0 l/m² 1,9 km/h (1 Bft) N-NO 0,00 h 0 W/m² -0,5 °C 0,8 °C 5,8 km/h (2 Bft)
14.02.2026 04:00 21,3 °C 0,8 °C 51 % 92 % 1001,4 hPa 0,0 l/m² 4,4 km/h (1 Bft) N 0,00 h 0 W/m² -0,4 °C 0,4 °C 9,9 km/h (2 Bft)
14.02.2026 05:00 21,4 °C 0,7 °C 50 % 92 % 1002,1 hPa 0,0 l/m² 3,9 km/h (1 Bft) N-NO 0,00 h 0 W/m² -0,4 °C 0,6 °C 9,0 km/h (2 Bft)
14.02.2026 06:00 21,4 °C 0,7 °C 50 % 92 % 1002,8 hPa 0,0 l/m² 3,7 km/h (1 Bft) N 0,00 h 0 W/m² -0,4 °C 0,6 °C 7,8 km/h (2 Bft)
14.02.2026 07:00 21,4 °C 0,7 °C 50 % 92 % 1003,9 hPa 0,0 l/m² 4,5 km/h (1 Bft) N 0,00 h 0 W/m² -0,4 °C 0,5 °C 9,7 km/h (2 Bft)
14.02.2026 08:00 21,5 °C 0,7 °C 50 % 92 % 1005,0 hPa 0,0 l/m² 4,2 km/h (1 Bft) N 0,00 h 8 W/m² -0,4 °C 0,5 °C 9,8 km/h (2 Bft)
14.02.2026 09:00 21,7 °C 0,7 °C 51 % 92 % 1006,0 hPa 0,0 l/m² 4,1 km/h (1 Bft) N 0,00 h 17 W/m² -0,5 °C 0,3 °C 9,5 km/h (2 Bft)
14.02.2026 10:00 21,7 °C 0,7 °C 50 % 91 % 1006,6 hPa 0,0 l/m² 4,0 km/h (1 Bft) N-NO 0,22 h 41 W/m² -0,6 °C 0,4 °C 9,4 km/h (2 Bft)
14.02.2026 11:00 21,7 °C 0,9 °C 51 % 91 % 1007,5 hPa 0,0 l/m² 6,2 km/h (2 Bft) N 0,95 h 76 W/m² -0,5 °C -0,5 °C 11,4 km/h (2 Bft)
14.02.2026 12:00 21,6 °C 1,0 °C 51 % 89 % 1008,3 hPa 0,0 l/m² 6,2 km/h (2 Bft) N 0,72 h 66 W/m² -0,6 °C 0,3 °C 12,0 km/h (2 Bft)
14.02.2026 13:00 21,7 °C 1,3 °C 51 % 87 % 1009,0 hPa 0,0 l/m² 7,6 km/h (2 Bft) N 1,00 h 112 W/m² -0,7 °C -0,4 °C 14,0 km/h (3 Bft)
14.02.2026 14:00 21,7 °C 1,3 °C 50 % 84 % 1009,8 hPa 0,0 l/m² 8,8 km/h (2 Bft) N 0,10 h 42 W/m² -1,0 °C -1,1 °C 14,8 km/h (3 Bft)
14.02.2026 15:00 21,6 °C 1,2 °C 48 % 82 % 1010,7 hPa 0,0 l/m² 8,0 km/h (2 Bft) N-NW 0,00 h 38 W/m² -1,5 °C -0,8 °C 13,3 km/h (3 Bft)
14.02.2026 16:00 21,5 °C 1,1 °C 48 % 82 % 1011,7 hPa 0,0 l/m² 8,0 km/h (2 Bft) N 0,00 h 19 W/m² -1,6 °C -0,7 °C 13,3 km/h (3 Bft)
14.02.2026 17:00 21,3 °C 0,8 °C 49 % 84 % 1012,9 hPa 0,0 l/m² 9,9 km/h (2 Bft) N-NW 0,00 h 8 W/m² -1,6 °C -2,4 °C 15,7 km/h (3 Bft)
14.02.2026 18:00 21,3 °C 0,4 °C 49 % 85 % 1014,1 hPa 0,0 l/m² 7,7 km/h (2 Bft) N-NW 0,00 h 0 W/m² -1,8 °C -1,2 °C 12,9 km/h (3 Bft)
14.02.2026 19:00 21,2 °C 0,3 °C 50 % 85 % 1014,8 hPa 0,0 l/m² 8,7 km/h (2 Bft) N 0,00 h 0 W/m² -2,0 °C -2,1 °C 14,6 km/h (3 Bft)
14.02.2026 20:00 21,3 °C -0,0 °C 51 % 82 % 1015,5 hPa 0,0 l/m² 9,0 km/h (2 Bft) N-NO 0,00 h 0 W/m² -2,7 °C -2,6 °C 14,5 km/h (3 Bft)
14.02.2026 21:00 21,4 °C -0,3 °C 51 % 80 % 1016,3 hPa 0,0 l/m² 8,6 km/h (2 Bft) N 0,00 h 0 W/m² -3,4 °C -2,6 °C 14,1 km/h (3 Bft)
14.02.2026 22:00 21,6 °C -0,5 °C 51 % 79 % 1016,9 hPa 0,0 l/m² 7,9 km/h (2 Bft) N 0,00 h 0 W/m² -3,7 °C -2,4 °C 12,6 km/h (2 Bft)
14.02.2026 23:00 21,7 °C -0,8 °C 51 % 74 % 1017,6 hPa 0,0 l/m² 7,8 km/h (2 Bft) N 0,00 h 0 W/m² -4,8 °C -2,4 °C 13,0 km/h (3 Bft)
15.02.2026 00:00 21,7 °C -0,9 °C 51 % 71 % 1017,9 hPa 0,0 l/m² 7,2 km/h (2 Bft) N-NO 0,00 h 0 W/m² -5,4 °C -2,2 °C 11,9 km/h (2 Bft)
15.02.2026 01:00 21,8 °C -1,0 °C 50 % 70 % 1018,8 hPa 0,0 l/m² 6,3 km/h (2 Bft) N-NW 0,00 h 0 W/m² -5,6 °C -1,7 °C 10,2 km/h (2 Bft)
15.02.2026 02:00 21,8 °C -1,1 °C 50 % 72 % 1019,2 hPa 0,0 l/m² 5,6 km/h (2 Bft) NW 0,00 h 0 W/m² -5,5 °C -1,6 °C 9,5 km/h (2 Bft)
15.02.2026 03:00 21,8 °C -1,2 °C 50 % 73 % 1019,3 hPa 0,0 l/m² 4,2 km/h (1 Bft) NW 0,00 h 0 W/m² -5,3 °C -1,3 °C 7,6 km/h (2 Bft)
15.02.2026 04:00 21,8 °C -1,3 °C 50 % 73 % 1019,6 hPa 0,0 l/m² 2,1 km/h (1 Bft) W-NW 0,00 h 0 W/m² -5,5 °C -1,3 °C 4,3 km/h (1 Bft)
15.02.2026 05:00 21,8 °C -1,5 °C 49 % 71 % 1020,0 hPa 0,0 l/m² 0,9 km/h (0 Bft) W 0,00 h 0 W/m² -6,0 °C -1,5 °C 2,2 km/h (1 Bft)
15.02.2026 06:00 21,8 °C -1,7 °C 49 % 71 % 1020,3 hPa 0,0 l/m² 2,6 km/h (1 Bft) W-NW 0,00 h 0 W/m² -6,2 °C -1,7 °C 4,6 km/h (1 Bft)
15.02.2026 07:00 21,7 °C -1,7 °C 49 % 69 % 1020,8 hPa 0,0 l/m² 1,3 km/h (1 Bft) W-NW 0,00 h 12 W/m² -6,7 °C -1,8 °C 2,3 km/h (1 Bft)
15.02.2026 08:00 21,8 °C -1,6 °C 49 % 69 % 1020,8 hPa 0,0 l/m² 0,8 km/h (0 Bft) SO 0,43 h 61 W/m² -6,5 °C -1,6 °C 1,5 km/h (1 Bft)
15.02.2026 09:00 22,1 °C -0,5 °C 50 % 66 % 1020,4 hPa 0,0 l/m² 0,9 km/h (0 Bft) NO 1,00 h 229 W/m² -6,0 °C -0,5 °C 2,2 km/h (1 Bft)
15.02.2026 10:00 22,2 °C 0,6 °C 48 % 62 % 1020,0 hPa 0,0 l/m² 1,3 km/h (1 Bft) S-SW 1,00 h 264 W/m² -5,8 °C 0,6 °C 2,5 km/h (1 Bft)
15.02.2026 11:00 21,6 °C 1,1 °C 37 % 63 % 1019,6 hPa 0,0 l/m² 8,9 km/h (2 Bft) S 1,00 h 448 W/m² -5,1 °C -1,6 °C 11,7 km/h (2 Bft)
15.02.2026 12:00 22,2 °C 1,5 °C 41 % 64 % 1018,4 hPa 0,0 l/m² 8,4 km/h (2 Bft) S-SO 1,00 h 488 W/m² -4,6 °C -0,7 °C 12,5 km/h (2 Bft)
15.02.2026 13:00 22,2 °C 1,8 °C 44 % 65 % 1017,5 hPa 0,0 l/m² 9,9 km/h (2 Bft) SO 0,98 h 467 W/m² -4,1 °C -1,3 °C 14,4 km/h (3 Bft)
15.02.2026 14:00 22,1 °C 1,7 °C 45 % 66 % 1016,5 hPa 0,0 l/m² 12,9 km/h (3 Bft) SO 1,00 h 347 W/m² -4,0 °C -3,6 °C 17,4 km/h (3 Bft)
15.02.2026 15:00 22,1 °C 1,1 °C 46 % 68 % 1015,3 hPa 0,0 l/m² 14,0 km/h (3 Bft) O-SO 0,90 h 201 W/m² -4,2 °C -4,9 °C 18,8 km/h (3 Bft)
15.02.2026 16:00 22,1 °C 0,3 °C 48 % 69 % 1014,2 hPa 0,0 l/m² 12,1 km/h (2 Bft) O-SO 0,33 h 60 W/m² -4,7 °C -4,6 °C 15,7 km/h (3 Bft)
15.02.2026 17:00 22,0 °C -0,4 °C 47 % 71 % 1013,5 hPa 0,0 l/m² 12,5 km/h (2 Bft) O-SO 0,00 h 10 W/m² -5,0 °C -5,7 °C 15,7 km/h (3 Bft)
15.02.2026 18:00 21,8 °C -1,4 °C 47 % 75 % 1012,1 hPa 0,0 l/m² 13,2 km/h (3 Bft) O 0,00 h 0 W/m² -5,3 °C -7,4 °C 15,9 km/h (3 Bft)
15.02.2026 19:00 21,8 °C -1,8 °C 50 % 77 % 1011,1 hPa 0,0 l/m² 14,8 km/h (3 Bft) O 0,00 h 0 W/m² -5,3 °C -8,9 °C 17,9 km/h (3 Bft)
15.02.2026 20:00 21,9 °C -2,4 °C 51 % 79 % 1009,9 hPa 0,0 l/m² 16,8 km/h (3 Bft) O 0,00 h 0 W/m² -5,5 °C -10,9 °C 20,6 km/h (4 Bft)
15.02.2026 21:00 22,1 °C -2,6 °C 51 % 80 % 1008,1 hPa 0,0 l/m² 16,0 km/h (3 Bft) O 0,00 h 0 W/m² -5,6 °C -10,7 °C 19,5 km/h (3 Bft)
15.02.2026 22:00 22,2 °C -2,4 °C 51 % 80 % 1006,2 hPa 0,0 l/m² 16,7 km/h (3 Bft) O 0,00 h 0 W/m² -5,3 °C -10,8 °C 20,8 km/h (4 Bft)
15.02.2026 23:00 22,2 °C -2,0 °C 50 % 80 % 1004,7 hPa 0,0 l/m² 16,9 km/h (3 Bft) O 0,00 h 0 W/m² -5,0 °C -10,5 °C 21,2 km/h (4 Bft)
Min-Datum _ 13.02.26 15.02.26 15.02.26 15.02.26 12.02.26 - 15.02.26 - - - 15.02.26 15.02.26 15.02.26
_ Min-Zeit 19:01 21:16 11:14 10:16 14:16 - 11:01 - - - 07:28 22:16 11:01
Minimum _ 21,0 °C -2,7 °C 34 % 61 % 977,3 hPa - 0,0 km/h (0 Bft) - - - -7,0 °C -13,4 °C 0,0 km/h (0 Bft)
Max-Datum _ 10.02.26 12.02.26 11.02.26 12.02.26 15.02.26 12.02.26 12.02.26 - 15.02.26 15.02.26 12.02.26 12.02.26 12.02.26
_ Max-Zeit 13:02 15:48 20:13 10:07 08:06 18:04 19:25 - 12:06 11:17 14:01 15:26 19:33
Maximum _ 22,4 °C 10,9 °C 53 % 96 % 1021,0 hPa 1,8 l/m² 29,2 km/h
W (5 Bft)
- 0,10 h 568 W/m² 8,3 °C 10,8 °C 40,2 km/h
W (6 Bft)
Durchschnitt _ 21,6 °C 3,1 °C 48 % 87 % 998,7 hPa #6,2 l/m² 5,0 km/h (1 Bft) O #41:51 h 47 W/m² 1,1 °C 1,9 °C 7,9 km/h (2 Bft)
© 2009 Mathias Hoßbach